2014 BG60

Initial reported observation by WISE on 2014-01-25.
(Discoverer will be defined when the object is numbered. See this note on how discoverers are determined.)

Orbit

Orbit type: Amor
Near-Earth Object

Note: WebGL enabled browser required.

epoch2023-09-13.0
epoch JD2460200.5
perihelion date2019-06-19.49601
perihelion JD2458653.99601
argument of perihelion (°)248.22742
ascending node (°)291.26732
inclination (°)8.53347
eccentricity0.6243653
perihelion distance (AU)1.1247927
Tisserand w.r.t. Jupiter2.9
ΔV w.r.t. Earth (km/sec)7.5
semimajor axis (AU)2.9943794
mean anomaly (°)294.16747
mean daily motion (°/day)0.19021450
aphelion distance (AU)4.864
period (years)5.18
P-vector [x]-0.99038036
P-vector [y]0.06632640
P-vector [z]-0.12143953
Q-vector [x]-0.00499160
Q-vector [y]-0.89418607
Q-vector [z]-0.44766768
absolute magnitude19.42
phase slope0.15
uncertainty1
referenceMPO 781745
observations used345
oppositions2
arc length (days)1811
first opposition used2014
last opposition used2019
residual rms (arc-secs)0.64
perturbers coarse indicatorM-v
perturbers precise indicator003Ek
first observation date used2014-01-25.0
last observation date used2019-01-10.0
computer nameBell
JD of orbit computation2458543.128121
perihelion JD uncertainty (days)1.9064E-04
argument of perihelion uncertainty (°)3.9543E-05
ascending node uncertainty (°)1.8377E-05
inclination uncertainty (°)4.3470E-06
eccentricity uncertainty 1.0936E-07
perihelion distance uncertainty (AU)4.0558E-07
Minimum Orbit Intersection Distances (in AU)
for orbit epoch: 2460000.5, reference: E2023-E12
Mercury0.74314
Venus0.44475
Earth0.19431
Mars0.00227
Jupiter0.73849
Saturn4.80017
Uranus15.2999
Neptune25.09

Observations

361 total observations over interval: 2014 01 25.48885 – 2019 01 10.338286
These data are available for download (format description).

Date (UT) J2000 RA J2000 Dec Magn Location Ref
2014 01 25.48885 13 39 59.58 -21 59 25.1 19 R C51 – WISE MPS 500395
2014 01 25.62064 13 40 33.14 -22 04 25.7   C51 – WISE MPS 500395
2014 01 25.68647 13 40 49.89 -22 06 54.5   C51 – WISE MPS 500395
2014 01 25.75231 13 41 06.65 -22 09 23.6   C51 – WISE MPS 500395
2014 01 25.94994 13 41 57.02 -22 16 52.0   C51 – WISE MPS 500395
2014 01 25.95006 13 41 57.09 -22 16 52.0   C51 – WISE MPS 500395
2014 01 26.01590 13 42 13.83 -22 19 22.5   C51 – WISE MPS 500395
2014 01 26.08173 13 42 30.61 -22 21 51.4   C51 – WISE MPS 500395
2014 01 26.213525 13 43 04.358 -22 26 47.76   C51 – WISE MPS 1746830
2014 01 26.345321 13 43 38.052 -22 31 47.53   C51 – WISE MPS 1746830
2014 01 26.47699 13 44 11.84 -22 36 42.7   C51 – WISE MPS 500395
2014 01 26.54295 13 44 28.68 -22 39 10.7   C51 – WISE MPS 500395
2014 01 26.67462 13 45 02.22 -22 44 07.4   C51 – WISE MPS 500395
2014 01 26.67474 13 45 02.30 -22 44 08.3   C51 – WISE MPS 500395
2014 01 26.74058 13 45 19.11 -22 46 36.1   C51 – WISE MPS 500395
2014 01 26.80641 13 45 36.04 -22 49 05.2   C51 – WISE MPS 500395
2014 01 26.93821 13 46 09.81 -22 53 59.9   C51 – WISE MPS 500395
2014 01 27.07013 13 46 43.67 -22 58 54.1   C51 – WISE MPS 500395
2014 01 27.13596 13 47 00.62 -23 01 23.8   C51 – WISE MPS 500395
2014 01 27.201924 13 47 17.556 -23 03 50.33   C51 – WISE MPS 1746830
2014 01 27.267758 13 47 34.423 -23 06 18.40   C51 – WISE MPS 1746830
2014 01 27.399552 13 48 08.350 -23 11 12.44   C51 – WISE MPS 1746830
2014 01 27.53122 13 48 42.23 -23 16 06.5   C51 – WISE MPS 500395
2014 01 27.59718 13 48 59.21 -23 18 33.0   C51 – WISE MPS 500395
2014 01 27.72885 13 49 33.15 -23 23 26.5   C51 – WISE MPS 500395
2014 01 27.72898 13 49 33.12 -23 23 27.2   C51 – WISE MPS 500395
2014 01 27.860644 13 50 07.111 -23 28 19.42   C51 – WISE MPS 1746830
2014 01 27.92661 13 50 24.11 -23 30 46.0   C51 – WISE MPS 500395
2014 01 28.12423 13 51 15.13 -23 38 02.9   C51 – WISE MPS 500395
2014 01 28.255902 13 51 49.090 -23 42 55.48   C51 – WISE MPS 1746830
2014 01 28.256029 13 51 49.166 -23 42 54.36   C51 – WISE MPS 1746830
2014 01 28.321862 13 52 06.190 -23 45 19.30   C51 – WISE MPS 1746830
2014 01 28.453657 13 52 40.284 -23 50 10.93   C51 – WISE MPS 1746830
2014 01 28.58533 13 53 14.26 -23 55 01.8   C51 – WISE MPS 500395
2014 01 28.71712 13 53 48.49 -23 59 50.8   C51 – WISE MPS 500395
2014 01 28.78308 13 54 05.58 -24 02 15.7   C51 – WISE MPS 500395
2014 01 28.84892 13 54 22.62 -24 04 40.0   C51 – WISE MPS 500395
2014 01 28.98071 13 54 56.79 -24 09 29.2   C51 – WISE MPS 500395
2014 01 29.04654 13 55 13.92 -24 11 52.8   C51 – WISE MPS 500395
2014 01 29.11238 13 55 30.87 -24 14 18.4   C51 – WISE MPS 500395
2014 01 29.178338 13 55 48.072 -24 16 42.31   C51 – WISE MPS 1746830
2014 01 29.441801 13 56 56.623 -24 26 16.87   C51 – WISE MPS 1746830
2014 01 29.50764 13 57 13.59 -24 28 41.0   C51 – WISE MPS 500395
2014 01 29.507762 13 57 13.697 -24 28 40.80   C51 – WISE MPS 1746830
2014 01 29.70539 13 58 05.10 -24 35 51.1   C51 – WISE MPS 500395
2014 01 29.731486 13 58 12.49 -24 36 46.1 21.6 V Q63 – Siding Spring-LCO A MPS 500395
2014 01 29.736991 13 58 13.91 -24 36 58.1 21.8 V Q63 – Siding Spring-LCO A MPS 500395
2014 01 29.742478 13 58 15.31 -24 37 09.6 21.7 V Q63 – Siding Spring-LCO A MPS 500395
2014 01 29.747963 13 58 16.71 -24 37 21.6 21.4 V Q63 – Siding Spring-LCO A MPS 500395
2014 01 29.77122 13 58 22.31 -24 38 13.5   C51 – WISE MPS 500395
2014 01 29.83706 13 58 39.39 -24 40 37.5   C51 – WISE MPS 500395
2014 01 30.03469 13 59 31.01 -24 47 44.0   C51 – WISE MPS 500395
2014 01 30.03482 13 59 30.98 -24 47 43.2   C51 – WISE MPS 500395
2014 01 30.10065 13 59 48.29 -24 50 04.4   C51 – WISE MPS 500395
2014 01 30.16648 14 00 05.37 -24 52 29.1   C51 – WISE MPS 500395
2014 01 30.232443 14 00 22.658 -24 54 50.29   C51 – WISE MPS 1746830
2014 01 30.49591 14 01 31.41 -25 04 17.0   C51 – WISE MPS 500395
2014 01 30.561734 14 01 48.818 -25 06 35.82   C51 – WISE MPS 1746830
2014 01 30.62770 14 02 05.84 -25 08 59.8   C51 – WISE MPS 500395
2014 01 30.69353 14 02 22.90 -25 11 19.1   C51 – WISE MPS 500395
2014 01 30.75936 14 02 40.28 -25 13 42.5   C51 – WISE MPS 500395
2014 01 30.82532 14 02 57.53 -25 16 03.5   C51 – WISE MPS 500395
2014 01 30.89116 14 03 14.90 -25 18 24.5   C51 – WISE MPS 500395
2014 01 31.022953 14 03 49.308 -25 23 06.22   C51 – WISE MPS 1746830
2014 01 31.088786 14 04 06.538 -25 25 26.36   C51 – WISE MPS 1746830
2014 01 31.418209 14 05 33.029 -25 37 05.88   C51 – WISE MPS 1746830
2014 01 31.48404 14 05 50.36 -25 39 25.5   C51 – WISE MPS 500395
2014 01 31.48417 14 05 50.41 -25 39 24.3   C51 – WISE MPS 500395
2014 01 31.55000 14 06 07.73 -25 41 45.2   C51 – WISE MPS 500395
2014 01 31.68180 14 06 42.28 -25 46 22.1   C51 – WISE MPS 500395
2014 01 31.81347 14 07 16.90 -25 51 00.7   C51 – WISE MPS 500395
2014 01 31.94526 14 07 51.55 -25 55 37.7   C51 – WISE MPS 500395
2014 02 01.07706 14 08 26.27 -26 00 14.8   C51 – WISE MPS 500395
2014 02 01.14289 14 08 43.67 -26 02 33.3   C51 – WISE MPS 500395
2014 02 01.208725 14 09 00.991 -26 04 50.27   C51 – WISE MPS 1746830
2014 02 01.208852 14 09 01.058 -26 04 47.28   C51 – WISE MPS 1746830
2014 02 01.47231 14 10 10.40 -26 14 01.6   C51 – WISE MPS 500395
2014 02 01.53815 14 10 27.76 -26 16 18.5   C51 – WISE MPS 500395
2014 02 01.669942 14 11 02.546 -26 20 52.69   C51 – WISE MPS 1746830
2014 02 01.735777 14 11 20.162 -26 23 09.17   C51 – WISE MPS 1746830
2014 02 01.80174 14 11 37.40 -26 25 25.7   C51 – WISE MPS 500395
2014 02 01.86757 14 11 54.74 -26 27 42.6   C51 – WISE MPS 500395
2014 02 01.99937 14 12 29.52 -26 32 15.6   C51 – WISE MPS 500395
2014 02 02.196994 14 13 21.991 -26 39 01.48   C51 – WISE MPS 1746830
2014 02 02.262829 14 13 39.125 -26 41 17.41   C51 – WISE MPS 1746830
2014 02 02.328789 14 13 56.798 -26 43 33.74   C51 – WISE MPS 1746830
2014 02 02.33255 14 13 58.33 -26 43 41.1 21.8 V 807 – Cerro Tololo Observatory, La Serena MPS 500395
2014 02 02.34071 14 14 00.45 -26 43 58.4 21.4 V 807 – Cerro Tololo Observatory, La Serena MPS 500395
2014 02 02.34963 14 14 02.75 -26 44 16.7 21.6 V 807 – Cerro Tololo Observatory, La Serena MPS 500395
2014 02 02.394623 14 14 14.081 -26 45 49.93   C51 – WISE MPS 1746830
2014 02 02.46046 14 14 31.50 -26 48 06.7   C51 – WISE MPS 500395
2014 02 02.49130 14 14 40.11 -26 49 20.4   291 – LPL/Spacewatch II MPS 500395
2014 02 02.49478 14 14 41.00 -26 49 27.5   291 – LPL/Spacewatch II MPS 500395
2014 02 02.52642 14 14 49.10 -26 50 20.4   C51 – WISE MPS 500395
2014 02 02.59225 14 15 06.45 -26 52 34.4   C51 – WISE MPS 500395
2014 02 02.65372 14 15 23.34 -26 54 36.2 21.1 R 474 – Mount John Observatory, Lake Tekapo MPS 500395
2014 02 02.65723 14 15 24.28 -26 54 42.8 21.0 R 474 – Mount John Observatory, Lake Tekapo MPS 500395
2014 02 02.65809 14 15 23.87 -26 54 50.1   C51 – WISE MPS 500395
2014 02 02.66075 14 15 25.20 -26 54 50.3 21.6 R 474 – Mount John Observatory, Lake Tekapo MPS 500395
2014 02 02.66427 14 15 26.11 -26 54 57.5 21.6 R 474 – Mount John Observatory, Lake Tekapo MPS 500395
2014 02 02.72405 14 15 41.41 -26 57 03.7   C51 – WISE MPS 500395
2014 02 02.85571 14 16 16.35 -27 01 32.0   C51 – WISE MPS 500395
2014 02 02.85584 14 16 16.34 -27 01 33.9   C51 – WISE MPS 500395
2014 02 02.92168 14 16 33.76 -27 03 46.1   C51 – WISE MPS 500395
2014 02 02.98751 14 16 51.23 -27 06 00.2   C51 – WISE MPS 500395
2014 02 03.185010 14 17 43.711 -27 12 42.12   C51 – WISE MPS 1746830
2014 02 03.250844 14 18 01.106 -27 14 53.56   C51 – WISE MPS 1746830
2014 02 03.316806 14 18 18.720 -27 17 08.41   C51 – WISE MPS 1746830
2014 02 03.37393 14 18 34.26 -27 19 03.4 20.8 r I11 – Gemini South Observatory, Cerro Pachon MPS 500395
2014 02 03.37583 14 18 34.76 -27 19 07.2 20.7 r I11 – Gemini South Observatory, Cerro Pachon MPS 500395
2014 02 03.37677 14 18 34.99 -27 19 09.2 20.9 r I11 – Gemini South Observatory, Cerro Pachon MPS 500395
2014 02 03.37772 14 18 35.23 -27 19 11.1 20.9 r I11 – Gemini South Observatory, Cerro Pachon MPS 500395
2014 02 03.382639 14 18 36.156 -27 19 20.96   C51 – WISE MPS 1746830
2014 02 03.448472 14 18 53.681 -27 21 34.67   C51 – WISE MPS 1746830
